Regional Weather Roundup
Issued by NWS Midland/Odessa, TX

Skip options and go directly to product.
Home | Oldest Version | Previous Version | Current Version | All | Text Only | Save Text | Print | Product List | Glossary Off

Skip product version selection by date and time.   

347
ASUS44 KMAF 310910
RWRMAF
MIDLAND AREA WEATHER ROUNDUP
NATIONAL WEATHER SERVICE MIDLAND TX
400 AM CDT FRI JUL 31 2015

...IN SOUTHWEST TEXAS AND SOUTHEAST NEW MEXICO...

CITY           SKY/WX    TMP DP  RH WIND       PRES   REMARKS
ALPINE         CLEAR     68  50  51 SW3       30.30F
ANDREWS        FAIR      75  56  52 SW3       30.18F
ARTESIA        PTCLDY    72  68  88 N15       30.23F
BIG SPRING     CLEAR     78  55  45 SE8       30.16F
CARLSBAD       PTCLDY    77  62  59 NW14      30.19R
DRYDEN           N/A     78  52  40 NW7       30.10F
FORT STOCKTON  CLEAR     76  49  38 S10       30.15F
GUAD PASS      PTCLDY    75  47  36 CALM      30.34S
HOBBS          PTCLDY    72  63  73 E6        30.22S
MARFA          CLEAR     59  52  77 NW7       30.29F
MIDLAND AIRPK  CLEAR     79  55  43 S5        30.16F
MIDLAND INTL   CLEAR     79  54  41 S7        30.15F
ODESSA         CLEAR     79  51  37 S6        30.17F
PECOS          CLEAR     72  45  38 W6        30.13S
PRESIDIO       FAIR      83  50  32 MISG      30.12S
SEMINOLE       PTCLDY    76  63  64 SE3       30.20F
SNYDER         PTCLDY    81  66  59 CALM      30.14F
WINK           CLEAR     79  50  36 SE9       30.14S
$$
...OTHER STATIONS IN TEXAS...

CITY           SKY/WX    TMP DP  RH WIND       PRES   REMARKS
ABILENE        CLEAR     77  64  64 SE6       30.10F
AMARILLO       PTCLDY    69  66  90 SE12      30.24F
AUSTIN         MOCLDY    80  70  71 E7        30.02S
BROWNSVILLE    CLEAR     76  75  97 CALM      30.00S
CORPUS CHRISTI MOCLDY    78  72  81 SW3       29.99F
DALLAS FTW     PTCLDY    83  71  67 E5        30.05F
DEL RIO        CLEAR     80  62  54 SE3       30.04F
EL PASO        CLOUDY    75  66  73 CALM      30.23R
HOUSTON INT    CLOUDY    81  77  88 CALM      29.99F
LUBBOCK        PTCLDY    72  68  87 E3        30.19F
SAN ANGELO     CLEAR     74  57  55 S5        30.11F
SAN ANTONIO    MOCLDY    82  65  56 NW3       30.04F
WACO           CLEAR     82  70  66 S8        30.04S
WICHITA FALLS  NOT AVBL
$$
...OTHER LOCATIONS IN NEW MEXICO...

CITY           SKY/WX    TMP DP  RH WIND       PRES   REMARKS
ALAMAGORDO     MOCLDY    75  59  57 NE3       30.24R
ALBUQUERQUE    CLOUDY    69  61  75 N8        30.34F
CANNON AFB     CLOUDY    69  65  88 W12       30.31R
CLOVIS         CLOUDY    70  66  88 W7        30.30S
HOLLOMAN AFB   CLOUDY    76  59  54 N5        30.22R
ROSWELL        MOCLDY    72  64  76 N9        30.24F
RUIDOSO          N/A    N/A N/A N/A MISG        N/A
SANTA FE       CLOUDY    63  58  83 S7        30.41F
TRUTH OR CONSE PTCLDY    69  60  73 W3        30.27S
TUCUMCARI      TSTM      69  65  86 NW8       30.29S
$$

USA.gov is the U.S. government's official web portal to all federal, state and local government web resources and services.